Theta_e
332 333 333 334 335 336 336 337 336 335 335 335 336 336 337 338 339 340 341 342 343 343 343 345 345 346 346 346 346 346 345 344 343 342 341 341 342 344 347 348 349 349 350 351 352 353 354 356 357 357 358 359 358 358 358 359 360 360 360 360 359 359 357
331 332 333 334 334 335 336 337 337 336 335 336 336 336 337 337 339 339 340 341 342 343 343 344 346 345 346 346 346 346 345 344 344 345 343 342 343 343 346 348 349 349 349 350 352 354 354 354 356 356 356 358 358 358 358 358 359 359 359 357 357 356 357
331 332 333 334 334 335 336 337 337 337 336 336 337 336 336 337 338 339 340 340 341 342 343 344 345 345 346 346 345 345 345 344 344 343 342 340 341 341 342 346 347 348 349 350 351 352 354 353 355 355 356 356 357 357 357 358 358 358 358 357 357 357 355
331 332 333 335 335 336 337 337 337 337 337 337 337 337 337 337 338 339 340 341 341 342 342 343 344 345 345 346 345 345 345 345 344 343 343 342 341 341 341 342 344 347 348 348 349 351 352 353 353 354 359 356 356 357 357 357 358 358 358 357 356 356 357
325 332 334 334 334 335 336 337 337 337 337 337 338 339 338 338 338 338 339 341 341 341 342 343 344 345 346 346 346 345 345 344 344 344 344 343 343 341 340 340 340 342 346 348 349 351 351 352 352 353 354 355 355 356 357 357 357 358 358 358 357 356 355
323 327 333 334 335 336 336 337 337 337 337 337 337 338 338 338 338 337 339 340 341 342 343 343 344 345 345 346 346 346 346 345 345 345 344 344 342 339 339 340 340 340 341 345 349 349 350 350 351 351 352 353 354 355 355 356 356 357 358 358 357 357 355
322 326 331 334 335 336 337 337 338 338 339 339 338 339 339 338 338 338 339 339 340 340 341 342 343 344 345 346 346 346 345 344 344 344 344 343 343 340 339 340 342 340 341 344 345 348 348 349 350 351 352 352 354 354 354 355 355 357 358 357 357 357 357
322 323 329 334 335 336 337 338 338 339 339 339 338 338 338 339 338 338 338 339 340 340 340 341 343 344 345 346 346 345 345 345 344 344 344 343 343 342 340 338 340 341 342 340 342 346 347 348 349 350 351 352 352 354 354 355 355 355 357 357 356 356 355
321 323 324 327 335 336 339 340 340 339 338 338 338 338 338 338 338 338 338 339 340 340 340 341 343 344 345 345 345 345 346 345 345 344 343 342 342 342 342 340 339 341 341 340 340 344 346 347 348 349 350 350 351 352 353 354 354 355 355 356 356 356 356
320 321 322 325 326 331 335 341 339 339 338 338 338 338 338 338 339 339 339 339 340 340 340 341 342 344 345 345 345 345 345 345 345 343 342 341 342 341 342 342 340 341 340 341 341 341 344 346 347 349 349 349 350 351 352 353 354 354 354 355 356 356 356
319 320 321 322 323 325 327 329 331 335 340 340 339 339 339 339 339 339 339 339 339 340 341 342 343 343 344 345 344 344 344 344 345 344 343 342 341 341 342 342 342 341 339 340 340 341 342 344 346 347 348 348 349 349 350 351 353 353 354 354 355 355 355
318 319 319 320 322 323 324 326 329 330 332 337 341 338 343 341 341 340 340 340 341 341 342 342 343 343 343 344 344 344 344 344 344 344 343 343 342 341 341 342 342 342 342 340 339 340 341 342 343 345 345 347 348 349 350 351 352 352 353 353 354 355 355
319 319 320 320 321 321 323 324 327 329 331 333 336 339 340 340 340 340 340 341 341 341 342 343 343 343 343 343 344 344 344 344 343 344 344 344 343 343 342 341 341 342 342 343 341 340 339 340 341 344 344 345 346 347 349 350 351 352 352 353 354 354 354
322 319 320 321 321 320 321 322 325 328 330 331 334 336 338 340 341 341 341 341 342 342 342 343 343 343 344 344 344 344 344 345 345 344 345 345 345 345 343 342 341 341 342 344 343 342 340 339 339 341 344 343 343 344 346 347 348 351 352 352 353 353 353
316 317 318 319 320 321 321 322 323 326 329 331 332 334 336 338 339 343 343 343 343 343 343 344 343 343 343 344 344 345 346 346 346 346 346 346 345 345 344 344 343 343 342 342 342 343 343 343 341 340 341 343 343 344 344 343 343 345 348 350 352 353 352
315 316 317 318 319 321 322 322 324 325 328 330 330 332 334 336 339 339 341 343 343 344 345 345 344 343 343 343 344 346 347 347 348 347 347 346 346 346 346 345 344 343 342 342 342 342 344 344 344 342 341 341 342 343 343 343 343 342 336 340 348 350 351
314 315 316 317 318 320 321 322 323 325 327 328 330 331 332 335 338 338 339 340 343 345 346 346 345 344 344 344 345 346 348 348 348 349 348 347 347 347 347 346 346 345 344 344 343 342 343 343 342 342 343 342 341 341 342 344 344 336 330 331 335 346 350
312 314 315 316 317 319 319 320 322 323 325 327 329 330 332 334 335 336 337 339 340 343 347 347 346 345 345 346 347 347 348 348 349 349 349 349 348 348 348 348 347 347 346 345 344 344 344 342 342 343 343 343 343 342 342 343 338 330 329 330 329 336 349
311 313 315 316 317 318 318 319 321 322 324 327 329 330 332 334 334 335 336 339 340 344 347 348 347 346 346 347 347 348 348 349 349 349 349 349 349 349 349 349 348 347 347 346 346 345 344 344 343 343 343 343 343 342 343 344 334 329 328 328 328 328 340
311 313 315 316 317 318 319 320 321 322 324 326 329 330 332 335 334 334 337 339 343 344 345 348 349 348 347 348 348 349 349 350 350 349 350 351 350 350 350 349 349 349 349 349 349 347 346 345 344 344 344 344 343 344 344 344 336 327 325 326 326 327 332
310 312 313 315 316 317 319 320 321 322 323 325 328 329 331 332 334 335 337 339 342 343 343 345 348 350 350 349 349 350 350 350 350 350 351 351 351 351 350 350 350 350 350 350 349 348 348 347 346 346 345 345 345 344 344 344 332 325 322 322 323 325 329
310 312 313 315 315 317 318 319 321 322 323 328 327 328 329 329 332 335 337 340 341 344 342 343 344 344 346 349 351 351 351 351 351 351 352 352 352 351 351 351 351 350 351 351 351 351 351 351 350 349 348 347 346 345 345 346 329 324 322 320 321 324 337
312 313 314 315 316 318 320 320 321 323 325 326 326 328 327 328 332 334 338 339 341 343 343 343 342 342 344 345 346 348 351 353 352 352 352 353 352 352 352 351 351 352 353 351 351 351 350 351 351 351 351 350 349 347 347 347 335 322 320 319 319 323 339
314 314 315 315 317 318 319 321 322 324 325 324 325 325 325 327 331 333 338 340 341 343 343 341 339 340 341 344 346 348 348 350 351 352 353 353 352 352 352 353 353 353 354 351 351 350 351 351 351 352 352 351 350 350 349 348 340 322 318 317 317 326 340
314 314 314 315 315 316 318 320 322 324 324 323 323 323 324 326 329 330 336 339 339 342 339 338 338 338 338 339 341 344 349 351 350 351 352 353 353 354 353 353 353 354 354 353 353 352 353 353 352 352 352 352 351 346 349 350 343 322 318 316 315 325 342
312 313 313 314 316 317 319 321 321 321 321 322 322 322 323 324 325 328 331 333 336 336 333 332 333 335 336 337 337 340 345 349 352 355 356 355 355 355 355 355 355 355 354 354 353 353 353 352 352 351 351 352 352 352 351 350 351 343 318 316 313 317 341
312 313 313 314 315 319 318 319 320 320 321 322 322 321 322 323 322 324 327 330 333 331 331 331 331 334 336 336 335 336 339 345 350 351 355 357 357 357 356 356 355 355 354 353 353 353 352 352 352 351 351 352 352 352 352 352 351 348 320 315 313 314 325
311 312 313 315 317 318 316 317 319 321 322 322 320 320 321 321 321 323 324 326 328 328 330 331 331 333 334 334 333 334 337 341 347 351 352 355 357 357 356 357 357 356 355 354 354 353 352 352 352 351 351 352 352 352 352 351 342 352 327 317 313 312 315
308 310 310 311 312 315 317 316 317 319 320 322 321 320 321 320 320 320 322 323 325 326 327 328 330 331 331 332 333 335 339 342 344 348 352 353 354 355 355 357 357 356 356 355 354 353 352 352 352 351 351 351 352 352 353 354 351 332 343 320 313 311 311
308 310 311 312 313 314 316 315 316 317 320 322 322 321 320 320 319 319 320 321 324 325 326 325 326 327 328 331 332 335 338 341 344 346 350 353 353 353 353 354 356 356 356 355 354 352 351 351 351 351 350 349 350 351 352 353 353 338 328 333 314 312 310
307 308 310 311 312 315 315 314 315 316 318 320 322 322 320 320 318 318 318 321 323 324 323 323 323 324 325 327 330 333 337 340 343 344 347 351 353 352 351 352 354 354 355 355 354 353 351 351 351 350 350 350 349 350 351 352 353 353 338 325 321 313 311
307 308 309 310 311 312 314 314 315 315 316 318 321 322 321 319 319 318 318 321 322 322 322 322 322 322 324 326 328 331 334 336 339 342 346 349 351 352 352 351 352 352 353 354 353 353 352 351 351 350 350 350 350 350 351 352 352 352 352 335 327 320 313
306 307 307 308 310 313 312 313 313 315 316 316 318 320 319 318 318 319 320 320 320 321 320 320 321 323 324 325 327 329 331 333 337 342 346 348 350 351 352 352 351 351 351 352 353 353 352 352 351 350 350 349 350 351 351 351 351 352 352 352 346 340 332
305 306 307 308 309 312 313 313 313 313 315 316 317 318 319 318 318 319 319 319 319 319 319 319 320 321 322 324 325 327 329 332 339 342 343 345 347 348 350 351 351 351 350 351 352 352 351 352 351 350 350 350 350 351 351 350 351 351 351 352 349 346 344
304 305 306 307 308 311 311 312 314 314 315 316 317 318 318 318 319 319 319 319 319 318 317 318 319 321 321 322 324 326 331 334 338 340 342 343 344 347 350 351 351 351 352 354 355 354 353 352 352 353 353 353 351 350 350 350 350 351 335 350 333 343 347
304 304 305 307 308 309 311 314 314 314 315 316 317 318 318 319 319 319 319 319 318 318 316 318 318 319 321 322 324 327 329 332 335 337 339 341 342 344 348 343 329 340 353 352 340 334 330 330 351 355 355 353 354 354 352 351 353 334 323 320 319 318 322
303 303 304 306 307 307 308 310 314 315 316 317 318 318 319 319 319 318 319 318 318 317 316 317 317 319 320 322 323 325 327 329 330 332 335 339 341 342 343 347 346 318 317 330 339 329 320 315 319 324 331 350 354 349 332 332 328 322 316 313 313 313 313
303 304 305 306 306 307 308 309 311 314 315 317 318 317 318 318 318 318 317 317 316 316 316 316 316 317 318 319 321 324 326 328 330 332 334 337 340 341 342 345 347 349 324 314 316 316 312 313 313 313 315 320 332 345 352 330 318 317 312 311 312 311 311
Wind_Speed
12 13 13 14 14 15 16 16 16 15 16 16 16 17 16 15 14 13 13 13 14 13 12 12 13 12 14 12 12 10 10 9 8 9 8 8 8 8 8 7 8 8 7 7 7 8 7 6 6 7 6 6 6 5 5 5 5 4 4 4 3 3 4
11 13 14 14 15 16 17 16 16 15 15 15 15 17 16 16 15 14 14 14 15 15 15 14 13 13 13 13 11 11 11 11 10 8 7 6 6 6 7 8 8 8 8 7 6 6 6 7 7 7 7 6 6 5 5 5 5 5 4 4 4 3 3
12 13 12 13 14 15 16 16 15 16 16 15 16 16 17 16 16 16 15 14 15 14 13 14 15 14 13 12 11 12 11 10 9 10 10 9 9 9 7 7 7 7 8 6 6 6 6 6 7 6 7 7 6 6 5 5 5 5 5 5 4 4 4
8 12 13 13 13 13 14 15 17 16 15 17 18 19 18 18 16 16 16 16 17 15 15 14 14 13 12 12 12 11 11 11 11 11 11 9 9 7 6 6 6 5 5 7 7 6 5 6 7 7 7 7 7 6 5 6 5 5 5 5 4 5 4
11 10 12 13 14 14 14 14 14 15 17 18 18 18 18 17 17 15 15 16 17 18 18 17 14 14 12 12 10 10 12 13 12 11 10 9 7 7 7 8 8 8 8 6 5 6 6 6 6 6 7 7 7 6 6 6 6 5 5 5 5 4 4
12 9 13 14 14 15 15 16 17 18 17 17 17 16 16 17 15 17 17 17 16 15 14 15 16 15 14 13 11 11 10 10 10 10 10 9 8 8 9 9 9 9 8 8 6 6 6 6 6 7 7 7 6 7 6 6 6 5 5 5 5 5 4
13 10 11 12 15 15 16 17 16 16 15 15 16 15 14 15 17 17 16 16 17 17 17 16 15 13 13 11 12 12 12 12 11 12 10 10 10 10 9 8 8 8 8 5 6 6 7 7 7 7 7 7 7 7 7 7 6 5 5 5 5 5 5
15 14 11 6 8 6 9 10 11 12 13 12 13 14 16 16 15 15 16 16 16 16 15 16 15 14 13 11 11 13 12 12 11 11 10 11 11 11 10 9 9 8 6 8 7 7 8 8 6 6 7 7 7 7 7 7 7 5 5 6 6 5 4
14 16 14 15 4 3 1 3 4 7 10 12 14 15 16 15 15 16 17 17 15 16 16 15 15 14 12 12 12 13 12 11 11 11 11 12 11 11 11 10 10 8 9 9 7 6 7 8 8 7 7 7 7 7 7 7 7 6 6 7 7 7 6
18 16 18 16 15 14 7 2 5 7 8 9 10 12 15 14 14 14 14 15 15 17 17 15 14 13 13 12 13 13 12 12 11 11 11 11 11 12 12 10 9 8 9 9 7 7 7 7 7 7 7 7 7 8 8 7 7 7 7 8 8 8 8
14 17 18 17 17 14 14 14 13 9 4 6 8 9 9 10 12 11 12 13 14 15 15 14 13 13 13 13 12 13 13 13 11 12 13 12 10 12 11 11 9 8 10 9 9 9 8 7 7 7 7 8 9 9 9 9 8 8 7 7 7 7 7
15 15 15 17 17 16 15 12 12 13 12 8 3 8 5 7 10 10 11 11 11 12 12 13 12 13 13 13 13 13 13 13 13 13 13 13 12 12 12 10 10 10 8 10 11 10 9 9 8 8 9 9 9 9 9 8 8 9 8 7 7 7 6
12 11 14 14 13 13 15 17 16 13 13 10 12 7 7 11 9 11 11 11 12 11 12 12 12 12 13 13 14 13 13 14 14 13 13 13 13 11 11 11 10 10 10 9 10 10 8 9 10 9 9 9 9 9 9 9 8 8 9 8 8 8 7
13 14 14 14 16 16 14 13 13 14 12 14 12 10 11 4 7 11 11 12 12 12 12 11 13 13 13 13 13 13 14 14 14 13 13 12 11 11 12 11 11 11 11 9 10 9 11 10 11 10 9 10 10 9 8 8 8 8 9 8 8 7 8
14 14 13 13 13 13 14 13 12 12 12 11 12 14 12 10 10 5 8 11 11 13 14 13 13 13 14 14 14 14 14 13 12 11 11 12 11 11 11 11 11 10 10 10 10 9 10 11 10 10 10 9 10 9 9 9 9 8 9 9 9 8 8
13 13 13 13 13 12 11 11 11 10 12 12 13 13 12 11 10 8 9 4 10 12 12 12 13 13 14 15 15 14 13 13 12 11 11 12 12 12 12 11 10 10 11 11 11 10 10 9 10 10 11 10 10 10 9 9 8 11 16 14 10 9 8
12 11 12 12 12 12 10 10 11 11 12 12 12 10 9 9 8 8 7 8 8 5 11 13 13 14 15 16 15 14 13 12 12 12 12 13 12 11 11 12 11 10 10 10 10 10 10 9 11 11 10 11 11 10 8 8 8 16 16 17 18 12 10
12 12 12 12 12 12 13 13 12 12 11 10 10 10 9 9 9 8 8 8 8 8 7 12 14 15 15 15 14 13 13 13 13 13 13 12 13 12 12 11 10 10 10 10 11 10 9 10 11 11 10 9 10 10 9 10 13 17 18 18 18 16 11
11 11 11 11 12 13 13 13 12 11 10 10 9 10 9 7 8 7 8 7 8 7 7 8 14 14 14 14 14 14 13 13 13 14 13 13 13 12 11 12 12 12 12 13 12 10 10 11 11 11 11 11 11 12 12 10 14 18 19 18 18 19 15
10 11 10 10 10 10 11 11 11 12 11 9 10 11 9 7 6 6 6 6 6 9 9 9 9 12 14 14 15 14 14 14 14 14 14 13 12 12 12 12 13 13 11 11 10 10 12 11 12 12 11 12 12 12 11 12 14 18 19 19 19 19 15
9 11 11 10 11 11 11 11 11 12 13 12 12 11 11 10 8 7 6 6 7 9 10 11 9 7 9 12 13 13 13 14 14 14 14 13 12 12 12 13 12 12 11 9 10 12 12 13 13 12 13 13 12 11 11 11 16 17 19 20 20 20 15
9 9 11 11 11 11 11 11 11 11 13 12 11 10 11 11 10 9 7 7 6 7 8 11 11 9 9 9 7 9 12 13 13 13 12 12 12 12 13 12 13 13 12 10 10 10 10 9 10 11 13 13 12 11 14 12 17 18 19 20 20 19 10
8 8 9 10 10 10 9 10 11 11 10 11 11 10 10 12 10 9 7 7 7 6 7 6 7 10 10 10 9 10 10 8 10 11 11 11 12 12 13 13 13 12 10 11 10 10 10 12 10 10 11 12 13 14 13 13 15 18 20 20 20 14 10
7 7 8 9 10 10 9 9 10 10 9 10 11 10 10 11 12 11 8 6 5 5 5 6 7 7 5 4 4 5 5 8 9 9 10 10 12 13 12 12 10 11 10 11 10 11 12 11 11 11 11 13 13 13 13 12 14 17 19 20 19 16 11
8 8 9 8 10 11 12 11 11 11 10 10 10 11 11 11 11 10 9 8 6 3 4 4 5 5 5 6 6 6 5 6 10 11 10 10 12 12 12 12 12 11 10 10 10 11 10 10 10 10 10 12 13 16 16 13 14 17 19 20 19 17 11
10 10 11 10 8 8 10 9 11 11 11 11 11 10 11 11 10 10 9 9 8 5 5 6 6 3 3 5 7 7 6 6 6 8 10 11 11 10 11 10 8 9 10 10 10 10 9 10 10 12 11 11 12 11 12 13 14 14 19 20 20 21 14
9 8 9 10 9 10 8 9 8 9 10 9 9 10 10 10 9 9 9 9 6 7 7 6 6 7 5 4 5 7 9 8 7 7 8 9 10 10 10 10 11 10 12 11 9 10 11 11 11 11 13 12 12 11 12 13 14 14 18 19 20 21 18
10 11 9 8 9 8 8 9 9 9 11 9 9 10 9 9 10 9 9 9 8 8 8 8 7 7 7 7 6 7 8 10 10 8 7 8 9 9 11 11 11 11 11 10 11 13 13 13 11 11 12 11 12 13 13 14 18 14 15 19 20 21 23
10 10 10 11 12 12 9 9 9 8 9 10 10 8 7 9 10 10 9 9 10 9 9 8 7 7 7 7 7 6 6 9 12 11 7 7 8 10 11 10 11 12 12 12 13 13 14 13 12 13 12 12 11 11 12 12 12 18 15 17 20 21 23
8 9 9 9 8 10 9 10 9 9 8 8 8 7 6 6 8 10 10 10 10 10 10 10 8 7 7 7 7 6 6 6 9 12 9 9 8 9 11 11 11 11 11 12 12 12 13 12 12 12 12 12 11 10 11 11 11 13 18 16 20 21 24
9 9 10 10 10 10 10 10 11 10 9 7 6 7 6 6 7 10 11 9 9 10 10 11 11 8 8 8 7 6 6 7 8 11 11 8 8 9 10 12 11 11 11 11 12 12 12 12 11 13 13 12 13 11 10 10 11 11 14 20 19 22 23
12 8 9 9 8 9 10 11 11 11 11 9 7 5 4 5 5 8 9 9 9 9 10 11 11 9 9 10 9 7 7 9 11 11 10 9 8 9 9 11 10 12 11 11 11 12 12 12 11 12 12 12 11 12 11 10 10 12 11 11 16 17 21
10 12 10 11 10 9 10 9 10 11 12 12 8 5 4 5 5 6 6 8 8 9 10 11 11 10 9 10 11 11 10 9 8 8 9 8 8 9 9 10 10 11 11 11 11 12 12 12 12 12 11 13 11 11 10 11 11 11 11 10 9 8 11
9 11 12 10 11 10 9 9 11 12 12 13 11 7 4 4 6 6 6 7 8 8 10 10 10 9 9 11 11 11 10 10 12 11 9 8 8 8 9 10 10 11 12 13 13 14 13 13 12 13 13 12 12 11 10 12 11 12 12 12 9 10 11
9 9 12 14 12 10 10 9 11 13 13 14 12 10 7 6 6 5 5 6 6 7 9 10 11 10 10 11 10 11 10 10 10 9 9 9 9 9 9 9 10 12 12 14 13 13 13 13 13 13 13 12 13 12 12 12 13 14 14 14 16 15 10
11 11 12 12 13 12 11 11 11 12 14 14 12 11 9 7 6 5 5 5 5 7 8 10 10 10 9 8 9 10 10 10 10 10 9 9 9 9 9 12 16 13 12 12 16 20 20 16 14 15 13 13 14 13 15 14 16 20 20 20 20 20 20
14 13 12 12 13 15 13 12 11 12 14 14 12 11 10 7 6 5 4 5 5 7 8 8 9 9 7 7 8 9 10 10 11 10 10 9 9 8 9 10 10 18 21 19 16 17 20 20 21 19 16 14 12 13 20 20 19 15 14 17 17 18 19
15 15 14 13 12 15 16 14 12 12 13 12 12 11 9 9 7 4 5 5 6 6 7 8 8 8 8 7 7 10 11 10 10 11 10 10 9 8 8 9 10 9 12 17 16 14 15 19 21 20 18 18 18 13 10 16 20 17 14 17 18 19 19
Wind_Direction
207 199 200 197 197 198 197 195 192 190 190 190 191 191 191 190 189 187 190 189 193 193 191 189 193 193 196 197 194 192 192 187 189 192 193 197 193 184 186 191 192 197 196 199 201 199 201 186 187 192 197 202 207 208 202 189 184 190 188 188 180 188 212
202 206 204 199 199 200 199 195 191 190 190 190 192 191 190 190 188 189 191 190 193 192 189 191 193 197 199 198 193 192 190 192 192 194 193 195 193 192 191 190 194 198 200 205 197 195 187 194 187 190 196 199 208 203 203 196 190 185 183 184 187 197 192
202 207 207 205 204 201 199 194 193 192 189 190 191 190 191 190 189 189 188 189 193 195 192 193 194 196 197 197 192 194 194 193 193 194 194 197 197 194 192 192 198 199 205 199 195 194 186 186 192 193 193 199 203 201 201 201 196 185 185 184 194 196 199
246 210 206 206 208 209 204 198 195 194 192 191 190 190 191 191 189 188 189 188 190 192 193 195 196 199 197 193 196 196 194 195 197 199 201 198 197 192 185 195 200 202 197 204 202 193 188 185 185 196 198 200 206 199 194 204 198 188 185 182 196 200 208
307 239 211 203 202 203 204 201 196 195 197 195 193 191 191 189 186 188 191 192 192 193 193 191 193 197 198 195 195 194 197 197 198 200 202 200 190 178 190 199 199 203 209 205 198 196 190 184 189 192 203 204 204 200 200 197 200 190 188 184 195 192 208
319 264 218 204 201 202 201 200 197 200 195 191 192 192 191 188 187 189 191 191 195 197 194 193 195 194 195 194 193 197 196 202 201 199 198 196 187 187 196 202 200 204 205 210 197 201 192 191 189 194 199 203 202 201 198 200 200 192 190 188 200 194 197
341 315 231 213 205 201 201 198 199 198 196 191 189 191 188 188 190 191 189 192 193 191 193 197 198 194 198 192 196 194 194 196 196 202 201 197 193 195 199 198 199 202 210 193 204 196 194 199 198 197 204 205 208 207 207 211 209 195 187 194 203 197 194
3 3 348 244 227 233 212 208 205 200 193 187 185 188 190 192 190 188 190 193 193 193 196 194 194 196 195 194 195 197 198 197 196 199 199 201 198 200 197 195 196 198 187 198 209 194 202 205 199 197 199 204 214 215 211 209 212 192 184 201 206 207 190
12 16 14 7 352 139 152 192 208 205 198 193 190 189 190 191 192 192 192 191 191 192 197 195 196 195 192 192 193 198 199 196 196 194 198 202 205 206 202 196 195 184 189 199 202 195 204 208 205 199 197 206 214 215 215 212 206 192 192 207 208 208 207
21 21 20 19 18 10 19 76 159 179 192 199 196 194 193 193 195 194 193 193 191 195 196 195 195 193 194 194 198 198 196 197 197 193 196 201 206 211 210 203 195 183 190 195 189 190 201 205 206 200 196 203 211 215 218 214 209 197 201 208 205 209 213
23 25 28 27 23 20 21 21 14 2 335 200 191 198 191 188 198 199 201 195 196 198 195 195 193 192 195 194 195 196 198 200 197 198 199 202 204 210 210 210 200 192 194 186 190 194 191 199 196 198 196 202 206 213 216 216 211 208 207 212 210 214 214
25 26 28 28 28 27 25 19 20 18 13 355 213 179 156 188 189 189 206 202 203 198 196 197 193 195 194 195 197 200 200 201 200 201 202 204 205 208 207 205 206 202 201 193 195 192 192 194 190 195 201 206 209 211 218 217 213 215 215 213 209 213 214
22 27 27 26 28 29 29 25 19 18 17 15 17 357 170 183 187 184 193 198 197 198 198 195 194 194 196 197 200 201 202 202 204 202 204 205 207 207 207 207 204 201 203 199 201 195 191 192 192 195 198 205 204 209 214 215 211 215 218 219 216 213 214
18 25 22 25 26 24 24 21 20 20 17 21 16 20 20 1 194 187 196 198 193 194 193 194 194 194 197 198 202 204 205 206 204 204 205 206 204 206 208 207 207 207 206 198 202 203 203 198 196 197 195 200 201 206 205 211 213 213 218 219 216 211 214
18 17 12 18 20 20 16 16 13 14 19 18 22 22 19 24 14 344 217 201 197 194 195 193 192 196 197 199 202 205 205 204 204 205 205 204 204 207 208 208 207 206 206 204 206 206 208 207 204 200 200 201 200 201 199 205 213 212 212 217 217 214 217
16 13 10 11 9 8 8 7 7 10 15 22 23 18 17 18 13 10 1 293 208 196 197 187 194 196 199 202 206 205 203 201 202 202 201 201 204 206 206 207 207 206 208 209 210 210 206 207 208 208 206 204 205 203 201 208 212 214 211 211 216 214 218
7 7 6 4 3 1 353 353 360 6 12 17 18 17 16 11 7 4 3 4 353 261 202 191 195 198 200 205 206 203 200 199 202 199 201 203 204 204 204 207 206 207 209 211 211 211 208 206 209 212 212 210 208 206 206 207 210 213 209 211 213 214 217
359 1 2 359 356 356 357 353 352 354 360 3 7 11 11 8 3 360 1 357 346 336 295 206 199 200 203 206 204 200 199 201 199 199 204 201 203 202 203 203 204 207 208 210 211 212 207 210 213 215 215 214 214 213 212 216 214 208 210 210 211 212 216
353 353 355 355 356 355 352 345 342 341 347 353 358 1 357 358 359 357 351 347 341 329 325 258 210 203 205 205 201 201 200 199 198 202 203 203 202 201 198 199 203 207 208 210 211 205 206 213 214 216 216 217 218 221 219 221 209 207 208 211 211 210 212
351 345 347 352 353 350 343 342 340 336 337 342 350 351 341 341 338 344 333 337 347 358 348 333 244 211 207 204 202 202 199 197 199 201 204 203 201 200 201 201 206 208 208 210 205 205 211 212 214 216 214 216 220 223 224 224 215 204 206 210 211 210 206
348 346 342 343 347 348 344 338 337 337 333 342 344 340 344 340 341 326 345 351 12 10 3 358 344 273 230 212 209 204 199 198 199 202 202 201 199 199 202 204 208 208 208 205 205 207 212 212 213 215 215 218 218 222 225 225 216 203 204 208 209 210 202
340 337 339 338 340 338 340 336 335 335 328 326 334 339 343 338 334 332 339 353 15 22 29 13 1 7 9 342 287 231 207 202 203 204 202 199 198 199 203 205 205 207 205 207 212 215 217 219 220 218 219 220 219 222 230 229 215 206 204 205 208 206 196
329 324 326 327 332 327 326 328 329 325 323 323 331 338 343 333 327 326 329 4 2 28 32 28 12 19 20 8 351 334 309 261 218 207 203 201 200 203 205 206 207 209 202 208 211 210 211 217 213 218 219 219 219 222 229 235 219 207 206 204 204 194 198
318 319 320 324 327 324 329 330 325 324 328 325 326 338 338 333 328 326 327 344 355 14 44 41 27 33 25 359 329 299 285 296 288 250 217 205 206 207 209 208 208 208 200 207 208 212 215 212 218 219 218 219 220 217 225 231 222 206 208 206 198 190 196
323 321 319 324 326 327 328 330 328 326 327 330 334 338 338 335 331 328 330 333 332 32 30 32 38 19 0 337 323 314 298 229 217 235 233 218 214 212 211 208 207 207 202 208 211 218 218 216 220 221 221 220 220 221 222 231 228 206 208 205 197 193 203
319 324 322 319 315 320 319 319 325 329 334 337 337 333 341 342 337 334 333 330 329 3 22 5 349 349 340 335 322 314 306 311 284 235 225 219 217 214 213 210 207 203 203 208 211 217 215 218 219 222 223 220 222 222 219 226 233 214 205 203 198 193 197
307 310 312 314 312 320 319 323 319 320 324 329 330 336 340 343 338 335 332 326 328 353 351 342 330 323 336 320 318 317 315 305 295 281 250 228 219 214 213 210 212 208 211 212 209 216 221 219 220 222 228 224 224 224 222 223 229 225 201 204 197 196 194
311 316 314 310 313 315 321 321 319 320 323 326 335 340 342 344 339 331 334 328 332 344 332 327 325 319 326 324 319 319 311 302 291 285 274 246 226 215 214 211 209 210 210 211 212 216 220 221 221 224 228 228 226 225 228 225 222 229 208 202 199 195 196
309 310 311 318 319 320 321 321 319 314 318 321 329 338 340 342 336 334 332 327 326 330 326 322 318 318 315 304 295 288 292 304 298 284 277 259 235 225 222 214 212 211 210 210 212 215 219 220 221 225 229 231 229 227 227 226 224 218 218 203 200 196 199
300 297 303 297 297 305 310 309 305 308 310 314 316 326 336 338 330 328 329 325 327 321 323 320 315 316 301 288 281 279 279 283 282 278 273 266 249 229 224 221 216 214 212 212 213 215 218 221 220 223 228 228 230 228 226 224 226 215 214 210 200 200 201
295 296 297 298 299 304 309 304 302 303 298 304 305 318 326 329 323 325 324 325 321 323 321 319 316 316 306 294 285 281 278 270 260 263 268 267 257 240 227 223 217 216 215 213 216 216 218 221 217 221 225 227 230 229 227 222 221 226 211 209 203 203 204
295 289 291 295 295 302 304 303 302 300 298 300 303 292 311 319 317 319 315 317 321 321 322 318 315 315 310 300 291 278 253 255 262 261 264 261 257 250 232 225 217 218 216 214 218 217 219 221 219 224 225 227 228 228 227 221 222 226 220 205 209 207 208
281 290 292 293 292 299 302 304 303 300 301 297 304 297 295 307 305 303 308 314 322 327 325 319 310 312 308 298 296 292 284 269 255 264 269 267 265 251 240 228 220 219 219 216 215 218 219 219 218 223 224 229 228 227 223 224 224 224 223 210 200 194 204
273 284 288 285 288 288 286 289 291 292 295 297 300 301 283 284 294 301 311 316 320 325 322 311 305 300 303 298 295 290 285 280 276 273 272 273 269 264 252 232 220 220 217 213 214 215 219 217 215 219 220 224 225 221 218 222 224 222 219 214 197 203 204
269 266 279 288 287 285 283 282 285 287 288 289 295 297 294 285 284 298 313 315 318 322 319 309 304 304 299 295 290 287 287 285 285 282 280 278 278 269 258 251 232 225 225 222 219 216 213 211 214 213 216 218 220 214 219 222 224 225 212 207 199 200 199
275 271 270 274 283 282 277 275 276 281 283 285 289 293 294 296 297 299 305 302 310 313 310 307 301 294 289 286 284 285 289 292 292 290 285 279 277 282 277 252 243 236 228 230 224 225 225 216 214 212 210 214 218 209 213 216 221 221 203 202 202 202 202
272 272 268 269 277 281 276 272 273 277 279 280 283 286 290 291 296 289 284 292 300 308 300 299 294 288 284 287 287 288 289 288 285 283 281 278 280 281 283 289 265 243 237 236 232 221 225 226 230 231 220 211 222 219 220 230 236 229 199 201 202 202 206
263 263 264 263 262 270 275 273 270 268 271 278 280 282 285 289 290 282 291 296 303 304 299 298 291 285 284 280 275 277 276 272 274 280 285 290 288 282 287 283 276 260 241 236 239 249 237 228 229 231 227 221 219 220 226 230 233 224 195 195 198 202 205